Tiempo cada hora Abakanovo

Hoy, 22 Junio, Martes

Tiempo Temperatura Precipitaciones Viento Presión Humedad
00:00 +20°C° 0 mm 2 mps 741 mmHg 82%
01:00 +19°C° 0 mm 2 mps 741 mmHg 85%
02:00 +19°C° 0 mm 2 mps 741 mmHg 89%
03:00 +20°C° 0 mm 2 mps 742 mmHg 88%
04:00 +20°C° 0 mm 2 mps 742 mmHg 88%
05:00 +21°C° 0 mm 2 mps 742 mmHg 87%
06:00 +24°C° 0 mm 2 mps 742 mmHg 79%
07:00 +26°C° 0 mm 3 mps 742 mmHg 72%
08:00 +28°C° 0 mm 3 mps 742 mmHg 63%
09:00 +29°C° 0 mm 4 mps 742 mmHg 54%
10:00 +32°C° 0 mm 4 mps 742 mmHg 45%
11:00 +34°C° 0 mm 5 mps 742 mmHg 36%
12:00 +34°C° 0 mm 5 mps 742 mmHg 34%
13:00 +34°C° 0 mm 5 mps 741 mmHg 31%
14:00 +34°C° 0 mm 5 mps 741 mmHg 30%
15:00 +34°C° 0 mm 4 mps 741 mmHg 32%
16:00 +34°C° 0 mm 4 mps 741 mmHg 34%
17:00 +33°C° 0 mm 3 mps 741 mmHg 36%
18:00 +30°C° 0 mm 3 mps 741 mmHg 46%
19:00 +28°C° 0 mm 2 mps 741 mmHg 57%
20:00 +25°C° 0 mm 2 mps 741 mmHg 67%
21:00 +24°C° 0 mm 2 mps 741 mmHg 69%
22:00 +23°C° 0 mm 2 mps 741 mmHg 71%
23:00 +23°C° 0 mm 2 mps 741 mmHg 74%

Mañana, 23 Junio, Miércoles

Tiempo Temperatura Precipitaciones Viento Presión Humedad
00:00 +21°C° 0 mm 2 mps 742 mmHg 76%
01:00 +21°C° 0 mm 2 mps 742 mmHg 79%
02:00 +20°C° 0 mm 2 mps 742 mmHg 82%
03:00 +21°C° 0 mm 2 mps 742 mmHg 82%
04:00 +21°C° 0 mm 2 mps 742 mmHg 82%
05:00 +23°C° 0 mm 2 mps 742 mmHg 83%
06:00 +25°C° 0 mm 2 mps 742 mmHg 75%
07:00 +27°C° 0 mm 2 mps 742 mmHg 67%
08:00 +29°C° 0 mm 3 mps 743 mmHg 59%
09:00 +31°C° 0 mm 3 mps 743 mmHg 52%
10:00 +33°C° 0 mm 3 mps 743 mmHg 45%
11:00 +34°C° 0 mm 4 mps 743 mmHg 37%
12:00 +35°C° 0 mm 4 mps 743 mmHg 36%
13:00 +35°C° 0 mm 4 mps 743 mmHg 34%
14:00 +35°C° 0 mm 4 mps 743 mmHg 32%
15:00 +35°C° 0 mm 3 mps 742 mmHg 34%
16:00 +35°C° 0 mm 3 mps 742 mmHg 35%
17:00 +35°C° 0 mm 2 mps 742 mmHg 37%
18:00 +31°C° 0 mm 2 mps 742 mmHg 48%
19:00 +29°C° 0 mm 2 mps 742 mmHg 58%
20:00 +27°C° 0 mm 2 mps 742 mmHg 69%
21:00 +26°C° 0 mm 2 mps 742 mmHg 72%
22:00 +24°C° 0 mm 1 mps 742 mmHg 75%
23:00 +23°C° 0 mm 1 mps 742 mmHg 78%

Pasado mañana, 24 Junio, Jueves

Tiempo Temperatura Precipitaciones Viento Presión Humedad
00:00 +23°C° 0 mm 1 mps 742 mmHg 80%
01:00 +21°C° 0 mm 2 mps 742 mmHg 82%
02:00 +21°C° 0 mm 2 mps 742 mmHg 85%
03:00 +21°C° 0 mm 2 mps 742 mmHg 84%
04:00 +23°C° 0 mm 2 mps 742 mmHg 83%
05:00 +23°C° 0 mm 1 mps 742 mmHg 82%
06:00 +25°C° 0 mm 2 mps 742 mmHg 74%
07:00 +28°C° 0 mm 2 mps 742 mmHg 65%
08:00 +30°C° 0 mm 2 mps 742 mmHg 57%
09:00 +31°C° 0 mm 2 mps 742 mmHg 52%
10:00 +32°C° 0 mm 2 mps 742 mmHg 46%
11:00 +35°C° 0 mm 3 mps 742 mmHg 40%
12:00 +35°C° 0 mm 3 mps 742 mmHg 37%
13:00 +36°C° 0 mm 3 mps 742 mmHg 33%
14:00 +37°C° 0 mm 3 mps 742 mmHg 30%
15:00 +36°C° 0 mm 3 mps 741 mmHg 33%
16:00 +35°C° 0 mm 3 mps 741 mmHg 35%
17:00 +35°C° 0 mm 3 mps 740 mmHg 38%
18:00 +30°C° 0.3 mm 3 mps 740 mmHg 53%
19:00 +27°C° 0.3 mm 3 mps 740 mmHg 68%
20:00 +22°C° 0.3 mm 3 mps 741 mmHg 83%
21:00 +23°C° 0.8 mm 2 mps 741 mmHg 87%
22:00 +21°C° 0.8 mm 2 mps 741 mmHg 91%
23:00 +21°C° 0.8 mm 1 mps 741 mmHg 96%

25 Junio, Viernes

Tiempo Temperatura Precipitaciones Viento Presión Humedad
00:00 +21°C° 0.1 mm 1 mps 741 mmHg 96%
01:00 +21°C° 0.1 mm 1 mps 740 mmHg 95%
02:00 +21°C° 0.1 mm 1 mps 740 mmHg 95%
03:00 +20°C° 0 mm 2 mps 740 mmHg 95%
04:00 +21°C° 0 mm 2 mps 740 mmHg 94%
05:00 +21°C° 0 mm 2 mps 740 mmHg 94%
06:00 +24°C° 0 mm 2 mps 740 mmHg 84%
07:00 +26°C° 0 mm 2 mps 740 mmHg 75%
08:00 +28°C° 0 mm 3 mps 740 mmHg 65%
09:00 +30°C° 0 mm 3 mps 740 mmHg 58%
10:00 +31°C° 0 mm 3 mps 740 mmHg 51%
11:00 +34°C° 0 mm 3 mps 740 mmHg 44%
12:00 +34°C° 0.1 mm 3 mps 739 mmHg 44%
13:00 +33°C° 0.1 mm 3 mps 739 mmHg 45%
14:00 +33°C° 0.1 mm 3 mps 738 mmHg 45%
15:00 +29°C° 2.9 mm 3 mps 738 mmHg 60%
16:00 +25°C° 2.9 mm 2 mps 738 mmHg 75%
17:00 +21°C° 2.9 mm 2 mps 738 mmHg 90%
18:00 +21°C° 0.7 mm 2 mps 738 mmHg 91%
19:00 +20°C° 0.7 mm 2 mps 738 mmHg 91%
20:00 +21°C° 0.7 mm 1 mps 738 mmHg 92%
21:00 +20°C° 0.4 mm 2 mps 738 mmHg 93%
22:00 +19°C° 0.4 mm 3 mps 738 mmHg 94%
23:00 +19°C° 0.4 mm 3 mps 738 mmHg 95%

26 Junio, Sábado

Tiempo Temperatura Precipitaciones Viento Presión Humedad
00:00 +19°C° 0 mm 3 mps 738 mmHg 95%
01:00 +19°C° 0 mm 2 mps 738 mmHg 96%
02:00 +18°C° 0 mm 2 mps 737 mmHg 96%
03:00 +19°C° 0 mm 2 mps 737 mmHg 95%
04:00 +19°C° 0 mm 2 mps 737 mmHg 94%
05:00 +21°C° 0 mm 1 mps 737 mmHg 93%
06:00 +21°C° 0 mm 2 mps 737 mmHg 84%
07:00 +24°C° 0 mm 2 mps 738 mmHg 75%
08:00 +26°C° 0 mm 3 mps 738 mmHg 66%
09:00 +27°C° 0 mm 3 mps 738 mmHg 61%
10:00 +29°C° 0 mm 3 mps 738 mmHg 55%
11:00 +30°C° 0 mm 3 mps 738 mmHg 50%
12:00 +31°C° 0 mm 3 mps 738 mmHg 47%
13:00 +31°C° 0 mm 3 mps 738 mmHg 45%
14:00 +33°C° 0 mm 3 mps 738 mmHg 42%
15:00 +31°C° 0 mm 3 mps 738 mmHg 44%
16:00 +31°C° 0 mm 3 mps 737 mmHg 47%
17:00 +31°C° 0 mm 3 mps 737 mmHg 49%
18:00 +29°C° 0 mm 2 mps 737 mmHg 58%
19:00 +27°C° 0 mm 1 mps 737 mmHg 67%
20:00 +25°C° 0 mm 1 mps 737 mmHg 75%
21:00 +24°C° 0 mm 1 mps 737 mmHg 78%
22:00 +23°C° 0 mm 1 mps 737 mmHg 80%
23:00 +22°C° 0 mm 1 mps 738 mmHg 83%

27 Junio, Domingo

Tiempo Temperatura Precipitaciones Viento Presión Humedad
00:00 +22°C° 0 mm 1 mps 738 mmHg 86%
01:00 +21°C° 0 mm 1 mps 738 mmHg 89%
02:00 +21°C° 0 mm 1 mps 738 mmHg 92%
03:00 +21°C° 0 mm 1 mps 738 mmHg 91%
04:00 +22°C° 0 mm 1 mps 738 mmHg 89%
05:00 +20°C° 0 mm 0 mps 738 mmHg 87%
06:00 +22°C° 0 mm 0 mps 738 mmHg 79%
07:00 +24°C° 0 mm 0 mps 739 mmHg 71%
08:00 +26°C° 0 mm 0 mps 739 mmHg 64%
09:00 +27°C° 0 mm 0 mps 739 mmHg 58%
10:00 +29°C° 0 mm 0 mps 739 mmHg 52%
11:00 +30°C° 0 mm 0 mps 739 mmHg 46%
12:00 +32°C° 0 mm 1 mps 739 mmHg 49%
13:00 +31°C° 0 mm 1 mps 739 mmHg 51%
14:00 +30°C° 0 mm 1 mps 738 mmHg 54%
15:00 +29°C° 0.3 mm 1 mps 738 mmHg 60%
16:00 +28°C° 0.3 mm 2 mps 738 mmHg 65%
17:00 +27°C° 0.3 mm 3 mps 738 mmHg 71%
18:00 +25°C° 1.5 mm 2 mps 738 mmHg 79%
19:00 +23°C° 1.5 mm 2 mps 738 mmHg 88%
20:00 +20°C° 1.5 mm 2 mps 739 mmHg 96%
21:00 +20°C° 1 mm 2 mps 738 mmHg 96%
22:00 +20°C° 1 mm 2 mps 738 mmHg 96%
23:00 +20°C° 1 mm 2 mps 737 mmHg 96%
Mostrar más

Necesitamos Su Consentimiento

Meteoprog y nuestros Proveedores de Servicios pueden almacenar y acceder a sus datos personales como cookies, identificadores de dispositivo u otras tecnologías similares de su dispositivo y procesar dichos datos para personalizar contenido y anuncios, además de ofrecer funciones de redes sociales y analizar el tráfico.

  • Almacenar y/o acceder a información en su dispositivo

    Se puede almacenar o acceder a cookies, identificadores de dispositivo u otra información de su dispositivo para los fines anteriormente indicados.

  • Anuncios y contenido personalizados, medición de anuncios y contenido, percepciones del público, y desarrollo de productos

    Los anuncios y el contenido pueden personalizarse en base a su perfil. Se pueden añadir más datos para personalizar mejor los anuncios y contenidos. Se puede medir el rendimiento de los anuncios y contenidos. Se puede obtener la percepción sobre el público que ha visto los anuncios y contenidos. Dichos datos pueden usarse para desarrollar o mejorar la experiencia del usuario, sistemas y software.

Al hacer clic en ‘Estoy De Acuerdo’ usted permitirá el uso de las cookies, identificadores de dispositivo, balizas web u otras tecnologías similares indicadas. Su configuración puede cambiarse desde el navegador de su dispositivo.

Para ciertos fines, los intereses legítimos pueden ser considerados por encima del consentimiento. Puede leer más sobre ello en nuestra Política de Privacidad y Cookies.